Goshen, IN

12:27 AM EDT on June 24, 2017 (GMT -0400)
Goshen Municipal

Weather History for KGSH - October, 2011

Change the Weather History Date:

Sunday, October 9, 2011

  Actual Average Record
Temperature  
Mean Temperature 65 °F -  
Max Temperature 82 °F 63 °F 85 °F (1949)
Min Temperature 48 °F 45 °F 25 °F (1989)
Growing Degree Days 15 (Base 50)    
Moisture  
Dew Point 52 °F    
Average Humidity 77    
Maximum Humidity 100    
Minimum Humidity 39    
Precipitation  
Precipitation 0.00 in - - ()
Sea Level Pressure  
Sea Level Pressure 30.35 in    
Wind  
Wind Speed 2 mph (ESE)    
Max Wind Speed 9 mph    
Max Gust Speed -    
Visibility 6 miles    
Events Fog    
Averages and records for this station are not official NWS values.
T = Trace of Precipitation, MM = Missing Value Source: NWS Daily Summary

Daily Weather History Graph

Daily Weather History Graph

Search for Another Location

Airport or City:

Trip Planner

Search our weather history database for the weather conditions in past years. The results will help you decide how hot, cold, wet, or windy it might be!

Date:

Astronomy

Oct. 09, 2011 Rise Set
Actual Time 7:48 AM EDT 7:12 PM EDT
Civil Twilight 7:20 AM EDT 7:39 PM EDT
Nautical Twilight 6:48 AM EDT 8:11 PM EDT
Astronomical Twilight 6:16 AM EDT 8:43 PM EDT
Moon 5:49 PM EDT (10/9) 5:31 AM EDT (10/9)
Length of Visible Light 12h 19m
Length of Day
11h 23m
Waxing Gibbous, 95% of the Moon is Illuminated
Oct 9
Waxing Gibbous
Oct 11
Full
Oct 19
Last Quarter
Oct 26
New
Nov 2
First Quarter

Hourly Weather History & Observations

Time (EDT) Temp. Heat Index Dew Point Humidity Pressure Visibility Wind Dir Wind Speed Gust Speed Precip Events Conditions
12:53 AM 55.9 °F - 52.0 °F 87% 30.33 in 10.0 mi SE 4.6 mph - N/A   Clear
1:53 AM 55.0 °F - 51.1 °F 86% 30.34 in 10.0 mi Calm Calm - N/A   Clear
2:53 AM 53.1 °F - 51.1 °F 93% 30.35 in 7.0 mi Calm Calm - N/A   Clear
3:53 AM 52.0 °F - 50.0 °F 93% 30.35 in 6.0 mi Calm Calm - N/A   Clear
4:53 AM 52.0 °F - 50.0 °F 93% 30.36 in 7.0 mi Calm Calm - N/A   Clear
5:53 AM 51.1 °F - 48.9 °F 92% 30.38 in 5.0 mi Calm Calm - N/A   Clear
6:53 AM 50.0 °F - 48.0 °F 93% 30.39 in 2.0 mi Calm Calm - N/A   Clear
7:19 AM 48.2 °F - 48.2 °F 100% 30.39 in 5.0 mi Calm Calm - N/A   Clear
7:28 AM 50.0 °F - 48.2 °F 94% 30.39 in 1.5 mi Calm Calm - N/A   Clear
7:35 AM 50.0 °F - 48.2 °F 94% 30.39 in 0.5 mi Calm Calm - N/A Fog Fog
7:50 AM 50.0 °F - 48.2 °F 94% 30.39 in 1.2 mi Calm Calm - N/A   Clear
7:53 AM 50.0 °F - 48.9 °F 96% 30.40 in 2.5 mi Calm Calm - N/A   Clear
8:00 AM 50.0 °F - 48.2 °F 94% 30.40 in 3.0 mi Calm Calm - N/A   Clear
8:14 AM 50.0 °F - 48.2 °F 94% 30.40 in 1.8 mi Calm Calm - N/A   Clear
8:27 AM 50.0 °F - 50.0 °F 100% 30.40 in 0.5 mi Calm Calm - N/A Fog Fog
8:35 AM 50.0 °F - 48.2 °F 94% 30.41 in 1.0 mi Calm Calm - N/A   Clear
8:53 AM 53.1 °F - 52.0 °F 96% 30.41 in 1.8 mi Calm Calm - N/A   Clear
9:01 AM 53.6 °F - 53.6 °F 100% 30.41 in 3.0 mi Calm Calm - N/A   Clear
9:53 AM 63.0 °F - 57.0 °F 81% 30.41 in 7.0 mi Calm Calm - N/A   Clear
10:53 AM 70.0 °F - 57.9 °F 65% 30.40 in 10.0 mi Calm Calm - N/A   Clear
11:53 AM 75.0 °F - 59.0 °F 57% 30.38 in 10.0 mi Variable 4.6 mph - N/A   Clear
12:53 PM 78.1 °F - 57.0 °F 48% 30.37 in 10.0 mi East 3.5 mph - N/A   Clear
1:53 PM 80.1 °F 80.4 °F 57.0 °F 45% 30.35 in 10.0 mi East 9.2 mph - N/A   Clear
2:53 PM 80.1 °F 80.4 °F 57.0 °F 45% 30.32 in 10.0 mi ENE 5.8 mph - N/A   Clear
3:53 PM 82.0 °F 81.4 °F 55.0 °F 39% 30.30 in 10.0 mi ESE 5.8 mph - N/A   Clear
4:53 PM 80.1 °F 79.9 °F 53.1 °F 39% 30.29 in 10.0 mi ESE 9.2 mph - N/A   Clear
5:53 PM 78.1 °F - 55.0 °F 45% 30.29 in 10.0 mi ESE 4.6 mph - N/A   Clear
6:53 PM 72.0 °F - 52.0 °F 49% 30.28 in 10.0 mi ESE 5.8 mph - N/A   Clear
7:53 PM 68.0 °F - 52.0 °F 56% 30.28 in 10.0 mi ESE 5.8 mph - N/A   Clear
8:53 PM 64.9 °F - 51.1 °F 61% 30.28 in 10.0 mi East 5.8 mph - N/A   Clear
9:53 PM 64.9 °F - 51.1 °F 61% 30.27 in 10.0 mi ESE 6.9 mph - N/A   Clear
10:53 PM 64.0 °F - 50.0 °F 60% 30.28 in 10.0 mi SE 5.8 mph - N/A   Clear
11:53 PM 57.0 °F - 51.1 °F 81% 30.29 in 10.0 mi East 3.5 mph - N/A   Clear